234  
ASUS42 KCHS 272327  
RWRCHS  
 
REGIONAL WEATHER ROUNDUP  
NATIONAL WEATHER SERVICE CHARLESTON SC  
700 PM EDT WED OCT 27 2021  
 
NOTE: "FAIR" INDICATES FEW OR NO CLOUDS BELOW 12,000 FEET WITH NO  
SIGNIFICANT WEATHER AND/OR S TO VISIBILITY
.  
 
NOT ALL STATIONS ARE QUALITY CONTROLLED. USE DATA WITH CAUTION,  
ESPECIALLY DEWPOINT OBSERVATIONS.  
 
SCZ027-030-031-034>040-042>050-280000-   
..SOUTHEAST SOUTH CAROLINA
 
 
 
CITY SKY/WX TMP DP RH WIND PRES REMARKS
 
N CHARLESTON PTCLDY 60 45 57 CALM 29.86R  
WATERFRONT PRK N/A 67 46 46 VRB2 29.71R  
MOUNT PLEASANT FAIR 57 52 82 CALM 29.86R  
JOHNS ISLAND FAIR 57 52 82 CALM 29.87R  
PINOPOLIS N/A 66 46 48 NW5 29.77S  
MONCKS CORNER FAIR 54 52 94 CALM 29.87R  
SUMMERVILLE FAIR 57 52 82 CALM 29.86R  
BEAUFORT MCAS CLEAR 62 52 69 CALM 29.86S  
BEAUFORT ARPT FAIR 59 50 72 CALM 29.86S  
HILTON HEAD IS CLEAR 59 54 82 CALM 29.87S  
WALTERBORO CLEAR 54 50 87 CALM 29.88R  
ALLENDALE FAIR 59 48 67 CALM 29.86R  
   
..SOUTHERN MIDLANDS AND PEE DEE
 
 
 
CITY SKY/WX TMP DP RH WIND PRES REMARKS
 
GEORGETOWN FAIR 54 46 76 CALM 29.86F  
KINGSTREE FAIR 54 45 71 CALM 29.86S  
ORANGEBURG CLEAR 61 44 53 NE3 29.87R  
BARNWELL FAIR 59 41 51 CALM 29.87R  
AIKEN NOT AVBL  
MANNING FAIR 55 43 62 CALM 29.87R  
COLUMBIA PTCLDY 62 45 53 CALM 29.85R  
SUMTER CLEAR 61 44 53 CALM 29.84S  
FLORENCE CLEAR 62 46 55 CALM 29.86S  
MYRTLE BEACH CLEAR 62 47 57 W5 29.86S  
N MYRTLE BEACH CLEAR 60 49 66 CALM 29.85R  
 

 
 
GAZ063-065-086>088-099>101-113>116-118-119-134>141-150-280000-   
..SOUTHEAST GEORGIA
 
 
 
CITY SKY/WX TMP DP RH WIND PRES REMARKS
 
SAVANNAH ARPT PTCLDY 63 48 58 N5 29.86R  
HUNTER AAF PTCLDY 62 50 65 CALM 29.83S  
FORT STEWART PTCLDY 60 54 79 CALM 29.84R  
STATESBORO PTCLDY 55 50 82 CALM 29.87R  
SYLVANIA CLEAR 56 49 78 CALM 29.87R  
CLAXTON FAIR 58 54 86 CALM 29.87R  
MILLEN FAIR 58 52 81 MISG 29.86R  
METTER FAIR 58 51 78 CALM 29.87R  
REIDSVILLE FAIR 61 49 65 SE3 29.86S  
   
..CSRA, CENTRAL AND FAR SOUTHEAST GEORGIA
 
 
 
CITY SKY/WX TMP DP RH WIND PRES REMARKS
 
THOMSON CLEAR 57 51 80 CALM 29.86R  
AUGUSTA-BUSH CLEAR 59 48 67 CALM 29.85R  
AUGUSTA-DANIEL CLEAR 65 43 44 N6 29.86S  
SWAINSBORO FAIR 57 50 77 CALM 29.88R  
VIDALIA PTCLDY 61 52 72 CALM 29.87R  
EASTMAN FAIR 62 52 68 E3 29.86S HAZE  
HAZLEHURST FAIR 63 53 69 E3 29.85R  
ALMA MOCLDY 65 57 75 CALM 29.85R  
WAYCROSS PTCLDY 65 63 93 CALM 29.85R  
JESUP FAIR 64 55 72 CALM 29.89R  
BAXLEY FAIR 63 55 77 CALM 29.86R  
BRUNSWICK PTCLDY 60 55 85 E5 29.87R  
SAINT SIMONS PTCLDY 66 56 70 CALM 29.86R  
 

 
 
SCZ027-028-034-036>038-045-046-048>050-GAZ119-141-280000-   
..LAKE AND SUPPLEMENTAL COASTAL OBSERVATIONS
 
 
 
STATION/POSITION TIME TEMP WIND PRES WAVE SWELL
 
AIR SEA DIR/SP/G HT/PER HT/PER/DIR  
(UTC) (F) (DEG/KT/KT) (MB) (FT/S) (FT/S/D)  
WINYAH BAY 2245 60 320/ 2 1011.0S  
LAKE MURRAY 2320 65 300/ 2/ 3 N/A  
CHRLSTN HARBOR 2248 67 74 350/ 4/ 6 1011.1R  
ACE BASIN NERRS 2245 59 CALM 1012.0S  
FORT PULASKI 2248 65 72 210/ 4/ 5 1011.0S  
SAPELO ISLAND 2300 60 120/ 2 1011.0  
 

 
 
ANZ835-935-AMZ111-154-330-350-352-354-370-450-454-472-280000-   
..C-MAN AND BUOY OBSERVATIONS
 
 
 
STATION/POSITION TIME TEMP WIND PRES WAVE SWELL
 
AIR SEA DIR/SP/G HT/PER HT/PER/DIR  
(UTC) (F) (DEG/KT/KT) (MB) (FT/S) (FT/S/D)  
BUOY 41004 2310 66 79 320/ 6/ 10 1011.1  
BUOY 41008 2250 66 76 330/ 2/ 4 1010.9R 2/ 6 2/ 60/ 6  
FOLLY BEACH CMAN 2300 63 320/ 3/ 4 1011.8R  
CAPERS NEARSHORE 2308 66 73 320/ 8/ 12 1010.9R  
CAPERS NS WAVE 2248 73 N/A 1/ 9  
FRIPP NEARSHORE 2308 67 73 300/ 4/ 6 1010.7R  
 
 
STATION/POSITION TIME TEMP WIND PRES WAVE SWELL
 
AIR SEA DIR/SP/G HT/PER HT/PER/DIR  
(UTC) (F) (DEG/KT/KT) (MB) (FT/S) (FT/S/D)  
5E ST. MARYS GA 2300 70 77 N/A 3/ 6  
FRYING PAN BUOY 2310 67 78 310/ 12/ 16 1010.3  
BUOY 41025 2310 67 82 340/ 16/ 19 1008.8  
CAPE LOOKOUT NC 2300 66 310/ 9/ 10 1010.3R  
BUOY 41002 2310 70 79 310/ 16/ 21 1008.4  
BUOY 41010 2310 77 81 310/ 4/ 4 1010.6  
ST AUGUSTINE FL 2300 73 79 90/ 2/ 2 1011.4R  
 

 
 
 
CLICK HERE TO GO TO PREVIOUS BULLETINS.

The Nexlab SC Page
The Nexlab GA Page Main Text Page